Aeroporto :
LOGIN :

Iscrizione | Disclaimer

   EN    FR    IT 

 










Sommario :    VFR   VFR Marginale   IFR   IFR Intensivo   IFR Molto Intensivo
Visibilità : 
Base nubi : 
>= 8 km
>= 3000ft
5 / 8 km
1000 / 3000 ft
1500m / 5 km
500 / 1000 ft
800 / 1500m
200 / 500 ft
< 800m
< 200 ft
Simboli :   Temporali  Nebbia  Neve Forte  Precipitazioni Forti  Vento > 20 kt
SIGMETs :   Varie  Temporali  Ghiacco  Turbolenza  Onda orograficha  Ceneri Vulcaniche






- Altitudine del aeroporto : 36 ft
- Codice IATA : GJL


DAAV - Jijel Ferhat Abbas

ULTIMO METAR :
  • 240600Z 15003KT 9999 FEW023 10/07 Q1025

METARs OBSOLETI :
  • 240500Z 13002KT 9999 SCT033 11/07 Q1025
  • 240400Z 18004KT 9999 FEW023 BKN033 11/08 Q1025

TAF TAF DAAV
Valido dal 24 a 06 ore il 25 a 06 ore UTC


240500Z 2406/2506 13005KT 9999 SCT033
PROB40
TEMPO 2406/2412 FEW023TCU



MetMap, La meteo Aeronautica in un colpo d'occhio ! - Copyright ORBIFLY Dicembre 2007 - Disclaimer

ORBIFLY MET'MAP TEAM :

Programmazione e sviluppo : Alexandra Zaïnal
Concezione : Baudouin d'Aumeries
Aiuto per la programmazione : Marc-Olivier Méhu
Supporto tecnico e logistico : Manuel Goepfert
Aiuto per la traduzione : Arnaldo La Scala

Contatto : metmap@orbifly.com




FONTI E CREDITI :

   NOAA